Regional Weather Roundup
Issued by NWS

Home | Current Version | Previous Version | Graphics & Text | Print | Product List | Glossary On
Versions: 1 2 3 4 5 6 7 8 9 10 11 12 13 14 15 16 17 18 19 20 21 22 23 24 25 26 27
000
ASUS45 KCYS 230910
RWRWY

WYOMING REGIONAL WEATHER ROUNDUP
NATIONAL WEATHER SERVICE CHEYENNE WY
200 AM MST THU NOV 23 2017

NOTE:  "FAIR" INDICATES FEW OR NO CLOUDS BELOW 12,000 FEET
WITH NO SIGNIFICANT WEATHER AND/OR OBSTRUCTIONS TO VISIBILITY.

WYZ001-231000-
YELLOWSTONE NATIONAL PARK

CITY           SKY/WX    TMP DP  RH WIND       PRES   REMARKS
LK YELLOWSTONE   N/A     37  35  92 CALM      30.36F
W YELLOWSTONE  NOT AVBL

$$
WYZ002>013-054>058-071-098>099-231000-
NORTHERN WYOMING

CITY           SKY/WX    TMP DP  RH WIND       PRES   REMARKS
JACKSON        FAIR      31  30  96 NE5       30.34F WCI  26
CODY           FAIR      57  36  45 VRB6      30.16F
GREYBULL       FAIR      33  32  96 S5        30.16F WCI  29
WORLAND        FAIR      30  30 100 SW5       30.16F WCI  25
SHERIDAN       FAIR      45  35  68 W6        30.05F
BUFFALO        FAIR      51  30  44 SW7       30.11F
GILLETTE       FAIR      51  36  56 SW18      30.07F
HULETT         FAIR      46  37  71 SW8       30.08S
NEWCASTLE      FAIR      36  32  87 NE6       30.12F WCI  31

$$
WYZ014>020-022>026-101>103-231000-
CENTRAL WYOMING

CITY           SKY/WX    TMP DP  RH WIND       PRES   REMARKS
BIG PINEY      FAIR      25  24  96 CALM      30.38F
PINEDALE       FAIR      28  28 100 W6        30.40S WCI  22
DUBOIS         FAIR      37  32  81 NW13      30.29F WCI  29
LANDER         FAIR      44  34  67 CALM      30.22F
RIVERTON       FAIR      42  35  76 W9        30.23F
CASPER         FAIR      45  37  73 SW8       30.22F
DOUGLAS        FAIR      37  36  96 CALM      30.20S

$$
WYZ021-027>030-104>119-231000-
SOUTHERN WYOMING

CITY           SKY/WX    TMP DP  RH WIND       PRES   REMARKS
EVANSTON       FAIR      39  36  89 SW8       30.41F WCI  33
KEMMERER       FAIR      36  34  93 NW5       30.40F WCI  32
FORT BRIDGER   FAIR      47  36  67 SW14      30.41F
ROCK SPRINGS   FAIR      42  35  76 SW12      30.38F
DIXON          FAIR      32  31  96 E3        30.43F
RAWLINS        FAIR      43  37  79 W21       30.34F
SARATOGA       FAIR      34  34 100 S9        30.38F WCI  26
LARAMIE        FAIR      37  34  89 W13       30.33F WCI  29
CHEYENNE       FAIR      50  37  61 W15       30.26S
TORRINGTON     FAIR      45  40  82 NW6       30.16F
PINE BLUFFS    FAIR      50  36  57 NW21      30.22R

$$




USA.gov is the U.S. government's official web portal to all federal, state and local government web resources and services.